Regional Weather Roundup
Issued by NWS

Home | Current Version | Previous Version | Text Only | Print | Product List | Glossary On
Versions: 1 2 3 4 5 6 7 8 9 10 11 12 13 14 15 16 17 18 19 20 21 22 23 24 25 26 27 28 29 30 31 32 33 34 35 36 37 38 39 40 41 42 43 44 45 46 47 48 49 50
000
ASUS43 KLOT 020508
RWRIL

ILLINOIS REGIONAL WEATHER ROUNDUP
NATIONAL WEATHER SERVICE CHICAGO/ROMEOVILLE IL
1100 PM CST TUE DEC 01 2020

NOTE: "FAIR" INDICATES FEW OR NO CLOUDS BELOW 12,000 FEET WITH NO
SIGNIFICANT WEATHER AND/OR OBSTRUCTIONS TO VISIBILITY.

* THESE STATIONS ARE NOT UNDER NWS QUALITY CONTROL. THEY ALSO MAY NOT
  REPORT WEATHER SUCH AS PRECIPITATION OR FOG.

ILZ001-002-007-009-015-016-024-020600-
NORTHWEST ILLINOIS

CITY           SKY/WX    TMP DP  RH WIND       PRES   REMARKS
MOLINE         PTCLDY    21  16  81 CALM      30.24R
STERLING*      CLEAR     23  19  85 CALM      30.24R
SAVANNA*       PTCLDY    21  19  93 CALM      30.25R
$$

ILZ003-004-008-010-011-017-018-020600-
NORTH CENTRAL ILLINOIS

CITY           SKY/WX    TMP DP  RH WIND       PRES   REMARKS
ROCKFORD       PTCLDY    25  15  66 NW6       30.24R WCI  18
FREEPORT*      CLEAR     24  16  71 W3        30.24R
ROCHELLE*      CLEAR     22  18  85 CALM      30.23R
DE KALB*       CLEAR     26  18  73 NW7       30.21R WCI  18
PERU*            N/A     26  20  79 CALM      30.24R
$$

ILZ005-006-012>014-019>023-020600-
NORTHEAST ILLINOIS

CITY           SKY/WX    TMP DP  RH WIND       PRES   REMARKS
CHICAGO-OHARE  CLEAR     28  19  69 W5        30.18R WCI  23
CHICAGO-MIDWAY CLEAR     28  18  66 W7        30.19R WCI  21
AURORA         CLEAR     21  14  74 CALM      30.21R
JOLIET*        CLEAR     20  19  93 CALM      30.22S
WAUKEGAN       CLEAR     27  17  66 NW6       30.18R WCI  20
DUPAGE AIRPORT CLEAR     23  17  78 W5        30.20R WCI  17
WHEELING       CLEAR     28  19  69 NW5       30.20R WCI  23
MORRIS*        CLEAR     23  20  87 W6        30.21S WCI  16
ROMEOVILLE*    CLEAR     23  20  91 W7        30.21R WCI  14
LANSING*       CLEAR     24  19  80 W5        30.19S WCI  18
NORTHERLY ISL*   N/A     32  21  64 W10         N/A  WCI  24
$$

LMZ740>746-020600-
SOUTHERN LAKE MICHIGAN

STATION/POSITION SKY/WX   TEMP    WIND        PRES    VSBY  WAVE
                          AIR SEA DIR/SP/G                  HT/PER
                          (F)     (DEG/KT/KT) (MB)    (MI)  (FT/S)
SOUTHERN BUOY              39 43  330/ 17/ 21 1021.7R         6/ 8
HARRISON CRIB              32     310/ 15/ 17   N/A
NORTHERLY ISL              32     270/  8/ 12   N/A
CALUMET HARBOR             29     250/  3/  5 1021.3R
BURNS HARBOR               37     330/  8/ 10 1021.7R
MICHIGAN CITY              36     330/ 16/ 19   N/A
$$

ILZ025>027-034>036-040-047-049-050-058-095>099-020600-
WEST-CENTRAL ILLINOIS

CITY           SKY/WX    TMP DP  RH WIND       PRES   REMARKS
QUINCY         CLEAR     26  16  65 SE5       30.23S WCI  20
GALESBURG*     PTCLDY    18  14  84 CALM      30.24R
MACOMB*        CLEAR     19  16  86 CALM      30.26R
JACKSONVILLE*  CLEAR     21  18  87 CALM      30.24R
PITTSFIELD*    CLEAR     25  20  80 CALM      30.25S
$$

ILZ028>032-037-038-041>044-048-051>054-059>061-020600-
CENTRAL ILLINOIS

CITY           SKY/WX    TMP DP  RH WIND       PRES   REMARKS
PONTIAC        CLEAR     23  19  83 CALM      30.24R
BLOOMINGTON    CLEAR     23  17  78 W6        30.24R WCI  16
DECATUR        CLEAR     23  19  85 CALM      30.24R
PEORIA         CLEAR     25  17  72 CALM      30.24R
LACON*         CLEAR     21  18  86 CALM      30.24R
LINCOLN*       CLEAR     21  16  79 CALM      30.24R
SPRINGFIELD    CLEAR     22  20  92 CALM      30.24R
TAYLORVILLE    CLEAR     23  19  86 CALM      30.24S
$$

ILZ033-039-045-046-055>057-062-063-020600-
EAST-CENTRAL ILLINOIS

CITY           SKY/WX    TMP DP  RH WIND       PRES   REMARKS
CHAMPAIGN      CLEAR     23  19  85 W5        30.22R WCI  17
RANTOUL*       CLEAR     21  17  85 W5        30.22R WCI  15
MATTOON        CLEAR     25  19  78 W5        30.22R WCI  19
PARIS*         CLEAR     24  21  89 MISG      30.24R
$$

ILZ079-100>102-020600-
SOUTHWEST ILLINOIS

CITY           SKY/WX    TMP DP  RH WIND       PRES   REMARKS
ALTON          CLEAR     21  20  99 CALM      30.25R
BELLEVILLE     CLEAR     24  22  94 CALM      30.23S
CAHOKIA*       CLEAR     24  21  88 CALM      30.25R
SPARTA*        CLEAR     23  21  93 CALM      30.26R
$$

ILZ064>066-069>071-074>076-080>082-084>086-088>090-092>094-020600-
SOUTH-CENTRAL ILLINOIS

CITY           SKY/WX    TMP DP  RH WIND       PRES   REMARKS
CARBONDALE     CLEAR     25  21  85 CALM      30.26R
CAIRO*         CLEAR     24  22  91 MISG      30.27R
EFFINGHAM*     CLEAR     24  21  89 CALM      30.26S
MARION         CLEAR     22  19  90 CALM      30.27S
MT. VERNON     CLEAR     19  17  92 NE3       30.27R
CENTRALIA*     CLEAR     24  22  93 CALM      30.25S
SALEM*         CLEAR     26  23  88 CALM      30.26R
$$

ILZ067-068-072-073-078-083-087-091-020600-
SOUTHEAST ILLINOIS

CITY           SKY/WX    TMP DP  RH WIND       PRES   REMARKS
LAWRENCEVILLE  CLEAR     26  21  81 W3        30.26R
FLORA*         CLEAR     23  21  93 W3        30.27R
FAIRFIELD*     CLEAR     23  20  89 CALM      30.26R
HARRISBURG*    CLEAR     22  18  86 CALM      30.27R
ROBINSON*      CLEAR     23  21  90 W3        30.26R
CARMI*         CLEAR     23  21  93 CALM      30.26R
$$

ABBREVIATIONS USED IN REMARKS
   TC - TEMPERATURE IN CELSIUS
  WCI - WIND CHILL INDEX
   HX - HEAT INDEX
  VSB - VISIBILITY
$$




USA.gov is the U.S. government's official web portal to all federal, state and local government web resources and services.